Flag for U.S.A. Weather past 2 weeks in Sedona, Arizona, U.S.A.

Now
55 °F

Mostly cloudy.


Feels Like: 53 °F
Forecast: 44 / 55 °F
Wind: 9 mph from Northeast

Location: Sedona Airport

Current Time: Jan 26, 2015 at 8:43:03 PM

Latest Report: Jan 26, 2015 at 7:55 PM


Visibility: 10 mi

Pressure: 30.21 "Hg

Humidity: 38%

Dew point: 30 °F

Location of SedonaLocation

Historic Weather in Sedona — Graph

°F

Sedona temperature yesterday

Maximum temperature yesterday: 68 °F (at 1:35 PM)
Minimum temperature yesterday: 45 °F (at 12:15 AM)
Average temperature yesterday: 54 °F

Past Weeks' High & Low Weather Summary

 TemperatureHumidityPressure
High68 °F (Jan 25, 1:35 PM)100% (Jan 11, 11:35 PM)30.40 "Hg (Jan 11, 11:35 PM)
Low32 °F (Jan 22, 6:35 AM)16% (Jan 24, 12:55 PM)29.95 "Hg (Jan 21, 4:55 AM)
Average47 °F49%30.21 "Hg
* Reported Jan 11 7:15 PM — Jan 26 7:15 PM, Sedona, Weather by CustomWeather, © 2014

Note: Actual official high and low records may vary slightly from our data, if they occured in-between our weather recording intervals... More about our weather records

Advertising

Sedona weather history for previous 24 hours

 ConditionsComfort  
Time TempWeatherWind HumidityBarometerVisibility
7:15 PM
Jan 26
55 °FPassing clouds.9 mph38%30.21 "Hg10 mi
6:55 PM55 °FPassing clouds.7 mph38%30.21 "Hg10 mi
6:35 PM55 °FOvercast.No wind38%30.21 "Hg10 mi
6:15 PM55 °FOvercast.No wind36%30.21 "Hg10 mi
5:55 PM55 °FOvercast.No wind36%30.21 "Hg10 mi
5:35 PM57 °FScattered clouds.3 mph33%30.21 "Hg10 mi
5:15 PM57 °FSunny.No wind33%30.19 "Hg10 mi
4:55 PM59 °FSunny.No wind34%30.18 "Hg10 mi
4:35 PM59 °FSunny.No wind34%30.19 "Hg10 mi
4:15 PM61 °FSunny.No wind31%30.19 "Hg10 mi
3:55 PM61 °FSunny.No wind31%30.19 "Hg10 mi
3:35 PM61 °FSunny.No wind31%30.20 "Hg10 mi
3:15 PM63 °FSunny.No wind30%30.21 "Hg10 mi
2:55 PM64 °FSunny.No wind28%30.21 "Hg10 mi
2:15 PM63 °FSunny.No wind30%30.21 "Hg10 mi
1:55 PM61 °FSunny.No wind31%30.21 "Hg10 mi
1:15 PM63 °FSunny.5 mph30%30.23 "Hg10 mi
12:55 PM63 °FSunny.3 mph30%30.23 "Hg10 mi
12:35 PM63 °FSunny.3 mph30%30.24 "Hg10 mi
12:15 PM64 °FSunny.No wind28%30.25 "Hg10 mi
11:55 AM63 °FSunny.No wind30%30.25 "Hg10 mi
11:35 AM61 °FSunny.No wind29%30.27 "Hg10 mi
11:15 AM57 °FSunny.No wind33%30.28 "Hg10 mi
10:55 AM59 °FSunny.No wind34%30.28 "Hg10 mi
10:35 AM55 °FSunny.No wind36%30.28 "Hg10 mi
10:15 AM55 °FSunny.No wind33%30.27 "Hg10 mi
9:55 AM54 °FSunny.No wind35%30.27 "Hg10 mi
9:35 AM54 °FSunny.No wind35%30.27 "Hg10 mi
9:15 AM52 °FSunny.No wind38%30.26 "Hg10 mi
8:55 AM52 °FSunny.8 mph35%30.26 "Hg10 mi
8:35 AM52 °FSunny.7 mph35%30.25 "Hg10 mi
8:15 AM50 °FSunny.No wind37%30.25 "Hg10 mi
7:55 AM52 °FSunny.3 mph35%30.25 "Hg10 mi
7:35 AM52 °FSunny.12 mph35%30.25 "Hg10 mi
7:15 AM52 °FClear.10 mph35%30.25 "Hg10 mi
6:55 AM52 °FClear.No wind35%30.25 "Hg10 mi
6:15 AM52 °FClear.No wind32%30.25 "Hg10 mi
5:55 AM50 °FClear.No wind37%30.24 "Hg10 mi
5:35 AM50 °FClear.No wind37%30.23 "Hg10 mi
5:15 AM52 °FClear.No wind35%30.23 "Hg10 mi
4:55 AM52 °FClear.8 mph35%30.23 "Hg10 mi
4:15 AM52 °FClear.9 mph35%30.25 "Hg10 mi
3:55 AM52 °FClear.No wind35%30.25 "Hg10 mi
3:35 AM52 °FClear.No wind35%30.26 "Hg10 mi
3:15 AM50 °FClear.No wind37%30.26 "Hg10 mi
2:55 AM52 °FClear.No wind35%30.26 "Hg10 mi
2:35 AM52 °FClear.No wind35%30.26 "Hg10 mi
2:15 AM54 °FClear.No wind33%30.26 "Hg10 mi
1:55 AM52 °FClear.No wind35%30.27 "Hg10 mi
1:35 AM54 °FClear.No wind33%30.26 "Hg10 mi
1:15 AM54 °FClear.No wind33%30.26 "Hg10 mi
12:55 AM54 °FClear.No wind33%30.26 "Hg10 mi
12:15 AM54 °FClear.No wind33%30.26 "Hg10 mi
11:55 PM
Jan 25
54 °FClear.No wind33%30.26 "Hg10 mi
11:35 PM54 °FClear.10 mph33%30.27 "Hg10 mi
11:15 PM54 °FClear.8 mph33%30.27 "Hg10 mi
10:55 PM55 °FClear.No wind31%30.27 "Hg10 mi
10:35 PM55 °FClear.3 mph31%30.26 "Hg10 mi
10:15 PM55 °FClear.No wind31%30.25 "Hg10 mi
9:55 PM55 °FClear.No wind31%30.25 "Hg10 mi
9:35 PM55 °FClear.No wind31%30.25 "Hg10 mi
9:15 PM55 °FClear.No wind31%30.24 "Hg10 mi
8:55 PM55 °FClear.12 mph31%30.23 "Hg10 mi
8:15 PM55 °FClear.13 mph28%30.22 "Hg10 mi
Weather by CustomWeather, © 2014

See weather overviewHow to use our weather pages